EW9318 Weather Reports


Display with metric or nautical units.
time (UTC)temp
F
wind
direction
speed
MPH
gust
MPH
rain 1hr
in
rain 24hr
in
rain mn
in
humidity
%
barometer
mb
20260502130516 39 3 7.0 12.0 0.00 0.00 0.00 73 1017.8
20260502123518 38 27 1.0 4.0 0.00 0.00 0.00 77 1017.8
20260502123018 38 27 2.0 4.0 0.00 0.00 0.00 78 1017.7
20260502122516 38 10 1.0 4.0 0.00 0.00 0.00 79 1017.7
20260502122037 37 22 0.0 5.0 0.00 0.00 0.00 79 1017.8
20260502121516 37 9 2.0 5.0 0.00 0.00 0.00 80 1017.7
20260502121016 37 5 2.0 5.0 0.00 0.00 0.00 82 1017.6
20260502120516 36 10 2.0 4.0 0.00 0.00 0.00 83 1017.6
20260502115516 34 0.0 0.0 0.00 0.00 0.00 87 1017.5
20260502115038 34 0.0 0.0 0.00 0.00 0.00 87 1017.4
20260502114518 33 0.0 0.0 0.00 0.00 0.00 87 1017.5
20260502114016 33 0.0 0.0 0.00 0.00 0.00 86 1017.4
20260502113518 32 0.0 0.0 0.00 0.00 0.00 87 1017.4
20260502113016 32 0.0 0.0 0.00 0.00 0.00 86 1017.4
20260502112538 32 0.0 0.0 0.00 0.00 0.00 87 1017.3
20260502112016 31 0.0 0.0 0.00 0.00 0.00 86 1017.3
20260502111516 31 0.0 0.0 0.00 0.00 0.00 86 1017.3
20260502111036 31 0.0 0.0 0.00 0.00 0.00 85 1017.3
20260502110536 30 0.0 0.0 0.00 0.00 0.00 85 1017.3
20260502110016 30 0.0 0.0 0.00 0.00 0.00 85 1017.2
20260502105516 31 0.0 0.0 0.00 0.00 0.00 84 1017.2
20260502105016 31 0.0 0.0 0.00 0.00 0.00 84 1017.4
20260502104556 31 0.0 0.0 0.00 0.00 0.00 83 1017.3
20260502104017 31 0.0 0.0 0.00 0.00 0.00 82 1017.3
20260502103516 31 0.0 0.0 0.00 0.00 0.00 81 1017.3
20260502103016 31 0.0 0.0 0.00 0.00 0.00 81 1017.2
20260502102516 32 0.0 0.0 0.00 0.00 0.00 80 1017.2
20260502102016 32 0.0 0.0 0.00 0.00 0.00 80 1017.1
20260502101516 32 0.0 0.0 0.00 0.00 0.00 80 1017.2
20260502101016 32 0.0 0.0 0.00 0.00 0.00 80 1017.2
20260502100516 32 0.0 0.0 0.00 0.00 0.00 80 1017.2
20260502091516 34 0.0 0.0 0.00 0.00 0.00 76 1017.1
20260502091016 34 0.0 0.0 0.00 0.00 0.00 76 1017.0
20260502090516 34 0.0 0.0 0.00 0.00 0.00 76 1017.0
20260502071516 35 292 2.0 4.0 0.00 0.00 0.00 77 1016.7
20260502071016 35 292 1.0 3.0 0.00 0.00 0.00 77 1016.7
20260502070516 35 301 1.0 3.0 0.00 0.00 0.00 77 1016.6
20260502070016 35 287 1.0 4.0 0.00 0.00 0.00 77 1016.7
20260502065516 35 279 2.0 4.0 0.00 0.00 0.00 77 1016.7
20260502065016 35 288 1.0 4.0 0.00 0.00 0.00 78 1016.8
20260502064515 35 291 2.0 4.0 0.00 0.00 0.00 78 1016.9
20260502064016 35 285 2.0 4.0 0.00 0.00 0.00 80 1016.8
20260502063536 34 0.0 0.0 0.00 0.00 0.00 80 1016.8
20260502063016 34 0.0 0.0 0.00 0.00 0.00 80 1016.8
20260502062516 34 0.0 0.0 0.00 0.00 0.00 80 1016.8
20260502062015 34 0.0 0.0 0.00 0.00 0.00 79 1016.8
20260502061515 34 0.0 0.0 0.00 0.00 0.00 79 1016.9
20260502061016 34 0.0 0.0 0.00 0.00 0.00 78 1017.0
20260502060515 34 0.0 0.0 0.00 0.00 0.00 77 1016.9
20260502060015 34 0.0 0.0 0.00 0.00 0.00 77 1017.0
20260502055515 34 0.0 0.0 0.00 0.00 0.00 77 1017.0
20260502055017 35 0.0 0.0 0.00 0.00 0.00 77 1016.9
20260502054515 35 0.0 0.0 0.00 0.00 0.00 75 1017.0
20260502054015 35 0.0 0.0 0.00 0.00 0.00 75 1017.1
20260502053537 35 0.0 0.0 0.00 0.00 0.00 74 1017.1
20260502053017 35 0.0 0.0 0.00 0.00 0.00 73 1017.0
20260502052516 35 0.0 0.0 0.00 0.00 0.00 72 1016.9
20260502052015 35 0.0 1.0 0.00 0.00 0.00 72 1017.0
20260502051515 35 282 0.0 2.0 0.00 0.00 0.00 71 1017.0
20260502051016 35 282 1.0 2.0 0.00 0.00 0.00 70 1017.0
20260502050516 35 282 0.0 2.0 0.00 0.00 0.00 70 1017.0
20260502050016 35 282 0.0 1.0 0.00 0.00 0.00 69 1016.9
20260502045537 35 282 0.0 2.0 0.00 0.00 0.00 69 1016.9
20260502045016 36 282 1.0 2.0 0.00 0.00 0.00 69 1016.9
20260502044517 36 292 1.0 2.0 0.00 0.00 0.00 68 1016.9
20260502044016 36 305 0.0 2.0 0.00 0.00 0.00 68 1016.8
20260502043515 36 305 0.0 2.0 0.00 0.00 0.00 68 1016.8
20260502043015 36 306 0.0 2.0 0.00 0.00 0.00 68 1016.7
20260502042536 36 305 1.0 3.0 0.00 0.00 0.00 68 1016.7
20260502042015 36 294 1.0 3.0 0.00 0.00 0.00 67 1016.8
20260502041517 36 289 1.0 3.0 0.00 0.00 0.00 67 1016.8
20260502041015 36 288 1.0 3.0 0.00 0.00 0.00 67 1016.8
20260502040515 36 288 2.0 4.0 0.00 0.00 0.00 67 1016.7
20260502040015 36 278 2.0 4.0 0.00 0.00 0.00 66 1016.7
20260502035516 36 287 2.0 5.0 0.00 0.00 0.00 65 1016.7
20260502035016 36 300 2.0 5.0 0.00 0.00 0.00 65 1016.7
20260502034516 36 291 2.0 3.0 0.00 0.00 0.00 65 1016.7
20260502034017 36 300 1.0 2.0 0.00 0.00 0.00 64 1016.8
20260502033516 36 301 1.0 4.0 0.00 0.00 0.00 63 1016.8
20260502033016 37 303 2.0 4.0 0.00 0.00 0.00 63 1016.7
20260502032517 37 312 2.0 6.0 0.00 0.00 0.00 62 1016.7
20260502032056 37 306 3.0 6.0 0.00 0.00 0.00 62 1016.6
20260502031516 37 325 3.0 5.0 0.00 0.00 0.00 61 1016.6
20260502031016 37 324 3.0 6.0 0.00 0.00 0.00 61 1016.5
20260502030536 37 320 3.0 6.0 0.00 0.00 0.00 61 1016.4
20260502030016 37 314 2.0 5.0 0.00 0.00 0.00 60 1016.4
20260502025516 37 319 3.0 6.0 0.00 0.00 0.00 60 1016.4
20260502025037 37 325 3.0 7.0 0.00 0.00 0.00 60 1016.5
20260502024516 37 318 4.0 9.0 0.00 0.00 0.00 61 1016.4
20260502024016 37 328 4.0 9.0 0.00 0.00 0.00 61 1016.3
20260502023515 37 324 5.0 9.0 0.00 0.00 0.00 62 1016.3
20260502023036 37 318 4.0 7.0 0.00 0.00 0.00 64 1016.2
20260502022516 37 315 4.0 8.0 0.00 0.00 0.00 66 1016.2
20260502022016 38 301 4.0 8.0 0.00 0.00 0.00 66 1016.2
20260502021515 38 296 4.0 7.0 0.00 0.00 0.00 67 1016.3
20260502021016 38 283 4.0 8.0 0.00 0.00 0.00 67 1016.2
20260502020516 38 279 5.0 9.0 0.00 0.00 0.00 67 1016.1
20260502020016 38 282 5.0 9.0 0.00 0.00 0.00 67 1015.9
20260502015516 38 286 5.0 8.0 0.00 0.00 0.00 67 1015.9
20260502015056 38 291 5.0 8.0 0.00 0.00 0.00 66 1015.8
20260502014516 38 306 4.0 10.0 0.00 0.00 0.00 67 1015.8
20260502014016 38 308 6.0 10.0 0.00 0.00 0.00 66 1015.8
20260502013515 38 304 4.0 11.0 0.00 0.00 0.00 66 1015.7
20260502013036 38 304 7.0 13.0 0.00 0.00 0.00 66 1015.7
20260502012517 39 301 7.0 13.0 0.00 0.00 0.00 66 1015.7
20260502012037 39 297 6.0 11.0 0.00 0.00 0.00 65 1015.7
20260502011536 39 283 6.0 11.0 0.00 0.00 0.00 64 1015.5
20260502011015 39 302 5.0 9.0 0.00 0.00 0.00 64 1015.5
20260502010516 39 293 5.0 10.0 0.00 0.00 0.00 62 1015.5
20260502010017 39 299 5.0 11.0 0.00 0.00 0.00 61 1015.4
20260502005515 39 289 6.0 11.0 0.00 0.00 0.00 60 1015.4
20260502005015 39 283 4.0 9.0 0.00 0.00 0.00 58 1015.3
20260502004516 39 298 5.0 9.0 0.00 0.00 0.00 56 1015.3
20260502004015 39 301 5.0 9.0 0.00 0.00 0.00 55 1015.3
20260502003535 39 309 4.0 9.0 0.00 0.00 0.00 55 1015.4
20260502003016 39 300 5.0 13.0 0.00 0.00 0.00 54 1015.3
20260502002515 39 311 8.0 13.0 0.00 0.00 0.00 53 1015.4
20260502002016 39 305 7.0 12.0 0.00 0.00 0.00 52 1015.4
20260502001517 39 303 7.0 14.0 0.00 0.00 0.00 51 1015.4
20260502001037 39 297 10.0 14.0 0.00 0.00 0.00 50 1015.3
20260502000536 39 300 8.0 13.0 0.00 0.00 0.00 50 1015.3
20260502000015 40 299 7.0 18.0 0.00 0.00 0.00 49 1015.2
20260501235515 40 300 12.0 18.0 0.00 0.00 0.00 47 1015.2
20260501235015 40 318 8.0 17.0 0.00 0.00 0.00 47 1015.2
20260501234535 40 316 8.0 16.0 0.00 0.00 0.00 47 1015.2
20260501234017 41 312 9.0 16.0 0.00 0.00 0.00 47 1015.2
20260501233535 41 317 11.0 17.0 0.00 0.00 0.00 47 1015.1
20260501233036 42 314 10.0 21.0 0.00 0.00 0.00 46 1015.1
20260501232517 42 315 13.0 21.0 0.00 0.00 0.00 46 1015.1
20260501232015 43 293 11.0 17.0 0.00 0.00 0.00 46 1015.0
20260501231515 43 301 10.0 16.0 0.00 0.00 0.00 45 1014.9
20260501231015 43 314 12.0 18.0 0.00 0.00 0.00 44 1015.0
20260501230538 44 304 11.0 18.0 0.00 0.00 0.00 43 1014.9
20260501230016 44 323 8.0 16.0 0.00 0.00 0.00 43 1014.9
20260501225535 44 312 9.0 16.0 0.00 0.00 0.00 43 1014.8
20260501225016 44 297 9.0 17.0 0.00 0.00 0.00 43 1014.8
20260501224515 44 312 11.0 17.0 0.00 0.00 0.00 42 1014.8
20260501224016 44 302 10.0 15.0 0.00 0.00 0.00 43 1014.8
20260501223535 44 308 9.0 19.0 0.00 0.00 0.00 43 1014.8
20260501223035 45 317 11.0 19.0 0.00 0.00 0.00 45 1014.8
20260501222515 45 326 9.0 17.0 0.00 0.00 0.00 44 1014.8
20260501222036 45 330 11.0 17.0 0.00 0.00 0.00 44 1014.7
20260501221515 45 319 11.0 16.0 0.00 0.00 0.00 44 1014.7
20260501221016 45 313 9.0 19.0 0.00 0.00 0.00 46 1014.7
20260501220555 44 332 11.0 21.0 0.00 0.00 0.00 46 1014.7
20260501215515 45 301 10.0 18.0 0.00 0.00 0.00 51 1014.7
20260501214515 44 293 12.0 20.0 0.00 0.00 0.00 50 1014.6
20260501214015 45 283 11.0 20.0 0.00 0.00 0.00 48 1014.5
20260501213515 45 284 9.0 17.0 0.00 0.00 0.00 48 1014.6
20260501213036 45 284 10.0 18.0 0.00 0.00 0.00 51 1014.6
20260501212516 45 294 11.0 18.0 0.00 0.00 0.00 48 1014.5
20260501212015 45 299 12.0 17.0 0.00 0.00 0.00 50 1014.5
20260501211515 45 278 11.0 19.0 0.00 0.00 0.00 51 1014.5
20260501211015 45 284 11.0 19.0 0.00 0.00 0.00 49 1014.4
20260501210616 45 276 12.0 19.0 0.00 0.00 0.00 50 1014.4
20260501210015 45 291 11.0 19.0 0.00 0.00 0.00 52 1014.4
20260501205515 46 284 13.0 19.0 0.00 0.00 0.00 50 1014.2
20260501205016 46 283 12.0 22.0 0.00 0.00 0.00 50 1014.3
20260501204536 46 270 15.0 22.0 0.00 0.00 0.00 51 1014.3
20260501204035 46 278 12.0 20.0 0.00 0.00 0.00 54 1014.2
20260501203516 45 279 10.0 20.0 0.00 0.00 0.00 52 1014.3
20260501203015 45 298 9.0 15.0 0.00 0.00 0.00 50 1014.3
20260501202515 45 302 11.0 17.0 0.00 0.00 0.00 49 1014.3
20260501202015 45 297 11.0 17.0 0.00 0.00 0.00 49 1014.4
20260501201517 46 295 10.0 21.0 0.00 0.00 0.00 49 1014.3
20260501201038 46 317 10.0 21.0 0.00 0.00 0.00 52 1014.3
20260501200518 45 335 10.0 14.0 0.00 0.00 0.00 55 1014.3
20260501200018 45 311 9.0 14.0 0.00 0.00 0.00 56 1014.3
20260501195537 45 293 9.0 15.0 0.00 0.00 0.00 56 1014.2
20260501195017 45 301 9.0 15.0 0.00 0.00 0.00 56 1014.2
20260501194517 45 324 10.0 14.0 0.00 0.00 0.00 58 1014.2
20260501194138 45 320 9.0 14.0 0.00 0.00 0.00 56 1014.2
20260501193538 45 298 8.0 13.0 0.00 0.00 0.00 58 1014.1
20260501193017 45 354 10.0 18.0 0.00 0.00 0.00 59 1014.1
20260501192518 45 330 7.0 18.0 0.00 0.00 0.00 60 1014.1
20260501192039 44 321 9.0 17.0 0.00 0.00 0.00 59 1014.1
20260501191517 44 344 9.0 14.0 0.00 0.00 0.00 63 1014.1
20260501191017 44 292 9.0 18.0 0.00 0.00 0.00 62 1014.1
20260501190518 44 297 9.0 18.0 0.00 0.00 0.00 61 1014.0
20260501190017 44 306 7.0 11.0 0.00 0.00 0.00 61 1013.9
20260501185518 43 281 5.0 10.0 0.00 0.00 0.00 60 1013.8
20260501185017 43 303 6.0 10.0 0.00 0.00 0.00 61 1013.9
20260501184518 43 324 6.0 10.0 0.00 0.00 0.00 61 1013.9
20260501184017 43 338 5.0 12.0 0.00 0.00 0.00 62 1013.8
20260501183538 43 345 7.0 12.0 0.00 0.00 0.00 61 1013.8
20260501183018 43 315 7.0 11.0 0.00 0.00 0.00 59 1013.7
20260501182517 43 311 7.0 11.0 0.00 0.00 0.00 61 1013.7
20260501182038 43 313 6.0 11.0 0.00 0.00 0.00 61 1013.8
20260501181517 43 322 4.0 11.0 0.00 0.00 0.00 62 1013.8
20260501181017 43 315 6.0 12.0 0.00 0.00 0.00 62 1013.8
20260501180517 43 322 8.0 15.0 0.00 0.00 0.00 61 1013.8
20260501180018 43 304 8.0 15.0 0.00 0.00 0.00 60 1013.8
20260501175517 43 291 8.0 12.0 0.00 0.00 0.00 60 1013.8
20260501175017 43 310 7.0 12.0 0.00 0.00 0.00 60 1013.8
20260501174517 44 331 7.0 12.0 0.00 0.00 0.00 60 1013.8
20260501174017 44 316 6.0 12.0 0.00 0.00 0.00 59 1013.7
20260501173538 44 25 5.0 12.0 0.00 0.00 0.00 61 1013.7
20260501173017 44 6 6.0 12.0 0.00 0.00 0.00 62 1013.7
20260501172538 44 340 6.0 12.0 0.00 0.00 0.00 61 1013.7
20260501172016 44 341 7.0 13.0 0.00 0.00 0.00 61 1013.8
20260501171516 44 347 8.0 15.0 0.00 0.00 0.00 64 1013.7
20260501171017 44 350 9.0 15.0 0.00 0.00 0.00 61 1013.7
20260501170517 44 352 10.0 15.0 0.00 0.00 0.00 63 1013.8
20260501170017 43 328 7.0 13.0 0.00 0.00 0.00 63 1013.8
20260501165517 43 323 7.0 13.0 0.00 0.00 0.00 62 1013.8
20260501165016 43 340 8.0 12.0 0.00 0.00 0.00 65 1013.8
20260501164536 43 337 7.0 14.0 0.00 0.00 0.00 61 1013.8
20260501164036 43 10 8.0 14.0 0.00 0.00 0.00 62 1013.9
20260501163538 43 16 8.0 12.0 0.00 0.00 0.00 63 1013.8
20260501163016 43 8 7.0 11.0 0.00 0.00 0.00 64 1013.9
20260501162516 43 20 8.0 11.0 0.00 0.00 0.00 64 1013.9
20260501162017 42 33 6.0 12.0 0.00 0.00 0.00 65 1013.9
20260501161537 42 10 8.0 12.0 0.00 0.00 0.00 66 1013.9
20260501161036 42 349 7.0 11.0 0.00 0.00 0.00 65 1013.9
20260501160516 43 345 8.0 12.0 0.00 0.00 0.00 62 1014.0
20260501160016 42 16 8.0 14.0 0.00 0.00 0.00 64 1013.9
20260501155518 42 344 8.0 14.0 0.00 0.00 0.00 63 1013.9
20260501155017 42 342 7.0 13.0 0.00 0.00 0.00 61 1013.9
20260501154537 42 348 9.0 13.0 0.00 0.00 0.00 61 1013.9
20260501154016 43 353 6.0 12.0 0.00 0.00 0.00 63 1013.9
20260501153517 43 353 7.0 14.0 0.00 0.00 0.00 64 1013.8
20260501153017 43 16 8.0 14.0 0.00 0.00 0.00 66 1013.8
20260501152618 42 1 6.0 11.0 0.00 0.00 0.00 67 1013.8
20260501152017 42 349 6.0 11.0 0.00 0.00 0.00 65 1013.8
20260501151537 43 346 7.0 11.0 0.00 0.00 0.00 65 1013.8
20260501151018 43 13 5.0 12.0 0.00 0.00 0.00 67 1013.7
20260501150518 42 359 6.0 12.0 0.00 0.00 0.00 67 1013.6
20260501150016 42 354 6.0 9.0 0.00 0.00 0.00 66 1013.6
20260501145518 42 343 6.0 10.0 0.00 0.00 0.00 65 1013.6
20260501145037 42 336 6.0 11.0 0.00 0.00 0.00 66 1013.7